Simultaneous Nadir Overpasses (SNOs) Predictions

Prediction of SNOs between AQUA and GOES-15 Satellite Orbit:

Table of predicted SNOs for the next 14.0 days since TLE Epoch: 6/8/2017
Index Date Time (AQUA) AQUA Lat,Lon GOES-15 Lat,Lon Distance(km) Time Diff (sec)
1 06/09/2017 10:19:39 -0.88,-131.18 -0.00,-135.22 459.02 80
2 06/09/2017 22:41:04 -0.19,-136.38 0.02,-135.26 127.10 80
3 06/11/2017 22:28:52 0.44,-133.43 0.02,-135.30 213.93 80
4 06/12/2017 10:50:07 0.64,-138.58 -0.04,-135.28 374.73 80
5 06/14/2017 10:37:54 0.06,-135.61 -0.03,-135.32 34.56 80
6 06/16/2017 10:25:42 -0.58,-132.66 -0.03,-135.35 305.39 80
7 06/16/2017 22:47:06 -0.49,-137.86 0.05,-135.38 281.69 80
8 06/18/2017 22:34:55 0.16,-134.90 0.04,-135.40 57.34 80
9 06/20/2017 22:22:42 0.76,-131.94 0.04,-135.42 395.57 80
10 06/21/2017 10:43:56 0.33,-137.09 -0.06,-135.40 193.52 80




NCC Satellite Simultaneous Nadir Overpasses (SNOs) Prediction Service
